Time,TemperatureF,DewpointF,PressureIn,WindDirection,WindDirectionDegrees,WindSpeedMPH,WindSpeedGustMPH,Humidity,HourlyPrecipIn,Conditions,Clouds,dailyrainin,SolarRadiationWatts/m^2,SoftwareType,DateUTC
2013-01-11 00:22:00,32.0,32.0,-100.00,SSW,200,16.0,22.0,100,0.00,,,0.00,0.000000,,2013-01-11 06:22:00,
2013-01-11 00:32:00,32.0,32.0,-100.00,SSW,200,16.0,22.0,100,0.00,,,0.00,0.000000,,2013-01-11 06:32:00,
2013-01-11 00:42:00,32.0,32.0,-100.00,SSW,200,16.0,22.0,100,0.00,,,0.00,0.000000,,2013-01-11 06:42:00,
2013-01-11 00:52:00,32.0,32.0,-100.00,SSW,200,16.0,22.0,100,0.00,,,0.00,0.000000,,2013-01-11 06:52:00,
2013-01-11 01:22:00,32.0,32.0,-100.00,SSW,210,16.0,22.0,100,0.00,,,0.00,0.000000,,2013-01-11 07:22:00,
2013-01-11 01:32:00,32.0,32.0,-100.00,SSW,210,16.0,22.0,100,0.00,,,0.00,0.000000,,2013-01-11 07:32:00,
2013-01-11 01:42:00,32.0,32.0,-100.00,SSW,210,16.0,22.0,100,0.00,,,0.00,0.000000,,2013-01-11 07:42:00,
2013-01-11 01:52:00,32.0,32.0,-100.00,SSW,210,16.0,22.0,100,0.00,,,0.00,0.000000,,2013-01-11 07:52:00,
2013-01-11 02:22:00,32.0,32.0,-100.00,SSW,212,16.0,21.0,100,0.00,,,0.00,0.000000,,2013-01-11 08:22:00,
2013-01-11 02:32:00,32.0,32.0,-100.00,SSW,212,16.0,21.0,100,0.00,,,0.00,0.000000,,2013-01-11 08:32:00,
2013-01-11 02:42:00,32.0,32.0,-100.00,SSW,212,16.0,21.0,100,0.00,,,0.00,0.000000,,2013-01-11 08:42:00,
2013-01-11 02:52:00,32.0,32.0,-100.00,SSW,212,16.0,21.0,100,0.00,,,0.00,0.000000,,2013-01-11 08:52:00,
2013-01-11 03:22:00,32.0,32.0,-100.00,SW,221,15.0,21.0,100,0.00,,,0.00,0.000000,,2013-01-11 09:22:00,
2013-01-11 03:32:00,32.0,32.0,-100.00,SW,221,15.0,21.0,100,0.00,,,0.00,0.000000,,2013-01-11 09:32:00,
2013-01-11 03:42:00,32.0,32.0,-100.00,SW,221,15.0,21.0,100,0.00,,,0.00,0.000000,,2013-01-11 09:42:00,
2013-01-11 03:52:00,32.0,32.0,-100.00,SW,221,15.0,21.0,100,0.00,,,0.00,0.000000,,2013-01-11 09:52:00,
2013-01-11 04:22:00,32.0,32.0,-100.00,SSW,209,12.0,19.0,100,0.00,,,0.00,0.000000,,2013-01-11 10:22:00,
2013-01-11 04:32:00,32.0,32.0,-100.00,SSW,209,12.0,19.0,100,0.00,,,0.00,0.000000,,2013-01-11 10:32:00,
2013-01-11 04:42:00,32.0,32.0,-100.00,SSW,209,12.0,19.0,100,0.00,,,0.00,0.000000,,2013-01-11 10:42:00,
2013-01-11 04:52:00,32.0,32.0,-100.00,SSW,209,12.0,19.0,100,0.00,,,0.00,0.000000,,2013-01-11 10:52:00,
2013-01-11 05:22:00,32.0,32.0,-100.00,SW,219,13.0,16.0,100,0.00,,,0.00,0.000000,,2013-01-11 11:22:00,
2013-01-11 05:33:00,32.0,32.0,-100.00,SW,219,13.0,16.0,100,0.00,,,0.00,0.000000,,2013-01-11 11:33:00,
2013-01-11 05:42:00,32.0,32.0,-100.00,SW,219,13.0,16.0,100,0.00,,,0.00,0.000000,,2013-01-11 11:42:00,
2013-01-11 05:52:00,32.0,32.0,-100.00,SW,219,13.0,16.0,100,0.00,,,0.00,0.000000,,2013-01-11 11:52:00,
2013-01-11 06:22:00,32.0,32.0,-100.00,SSW,201,5.0,15.0,100,0.00,,,-99.99,0.000000,,2013-01-11 12:22:00,
2013-01-11 06:33:00,32.0,32.0,-100.00,SSW,201,5.0,15.0,100,0.00,,,-99.99,0.000000,,2013-01-11 12:33:00,
2013-01-11 06:42:00,32.0,32.0,-100.00,SSW,201,5.0,15.0,100,0.00,,,-99.99,0.000000,,2013-01-11 12:42:00,
2013-01-11 06:52:00,32.0,32.0,-100.00,SSW,201,5.0,15.0,100,0.00,,,-99.99,0.000000,,2013-01-11 12:52:00,
2013-01-11 07:22:00,32.0,32.0,-100.00,SSW,197,5.0,8.0,100,0.00,,,-99.99,0.000000,,2013-01-11 13:22:00,
2013-01-11 07:33:00,32.0,32.0,-100.00,SSW,197,5.0,8.0,100,0.00,,,-99.99,0.000000,,2013-01-11 13:33:00,
2013-01-11 07:42:00,32.0,32.0,-100.00,SSW,197,5.0,8.0,100,0.00,,,-99.99,0.000000,,2013-01-11 13:42:00,
2013-01-11 07:52:00,32.0,32.0,-100.00,SSW,197,5.0,8.0,100,0.00,,,-99.99,0.000000,,2013-01-11 13:52:00,
2013-01-11 08:23:00,32.0,32.0,-100.00,SW,224,6.0,6.0,100,0.00,,,0.00,0.000000,,2013-01-11 14:23:00,
2013-01-11 08:33:00,32.0,32.0,-100.00,SW,224,6.0,6.0,100,0.00,,,0.00,0.000000,,2013-01-11 14:33:00,
2013-01-11 08:43:00,32.0,32.0,-100.00,SW,224,6.0,6.0,100,0.00,,,0.00,0.000000,,2013-01-11 14:43:00,
2013-01-11 08:53:00,32.0,32.0,-100.00,SW,224,6.0,6.0,100,0.00,,,0.00,0.000000,,2013-01-11 14:53:00,
2013-01-11 09:23:00,32.0,32.0,-100.00,East,91,4.0,7.0,100,0.00,,,0.00,0.000000,,2013-01-11 15:23:00,
2013-01-11 09:33:00,32.0,32.0,-100.00,East,91,4.0,7.0,100,0.00,,,0.00,0.000000,,2013-01-11 15:33:00,
2013-01-11 09:43:00,32.0,32.0,-100.00,East,91,4.0,7.0,100,0.00,,,0.00,0.000000,,2013-01-11 15:43:00,
2013-01-11 09:52:00,32.0,32.0,-100.00,East,91,4.0,7.0,100,0.00,,,0.00,0.000000,,2013-01-11 15:52:00,
2013-01-11 10:22:00,32.0,32.0,-100.00,East,98,5.0,6.0,100,0.00,,,0.00,1.000000,,2013-01-11 16:22:00,
2013-01-11 10:33:00,32.0,32.0,-100.00,East,98,5.0,6.0,100,0.00,,,0.00,1.000000,,2013-01-11 16:33:00,
2013-01-11 10:42:00,32.0,32.0,-100.00,East,98,5.0,6.0,100,0.00,,,0.00,1.000000,,2013-01-11 16:42:00,
2013-01-11 10:52:00,32.0,32.0,-100.00,East,98,5.0,6.0,100,0.00,,,0.00,1.000000,,2013-01-11 16:52:00,
2013-01-11 11:22:00,33.0,33.0,-100.00,North,11,3.0,7.0,100,0.01,,,0.01,88.000000,,2013-01-11 17:22:00,
2013-01-11 11:33:00,33.0,33.0,-100.00,North,11,3.0,7.0,100,0.01,,,0.01,88.000000,,2013-01-11 17:33:00,
2013-01-11 11:43:00,33.0,33.0,-100.00,North,11,3.0,7.0,100,0.01,,,0.01,88.000000,,2013-01-11 17:43:00,
2013-01-11 11:53:00,33.0,33.0,-100.00,North,11,3.0,7.0,100,0.01,,,0.01,88.000000,,2013-01-11 17:53:00,
2013-01-11 12:23:00,33.0,33.0,-100.00,NE,43,8.0,12.0,100,0.00,,,0.01,60.000000,,2013-01-11 18:23:00,
2013-01-11 12:33:00,33.0,33.0,-100.00,NE,43,8.0,12.0,100,0.00,,,0.01,60.000000,,2013-01-11 18:33:00,
2013-01-11 12:43:00,33.0,33.0,-100.00,NE,43,8.0,12.0,100,0.00,,,0.01,60.000000,,2013-01-11 18:43:00,
2013-01-11 12:53:00,33.0,33.0,-100.00,NE,43,8.0,12.0,100,0.00,,,0.01,60.000000,,2013-01-11 18:53:00,
2013-01-11 13:22:00,28.0,28.0,-100.00,NNE,28,17.0,22.0,100,0.00,,,0.01,75.000000,,2013-01-11 19:22:00,
2013-01-11 13:32:00,28.0,28.0,-100.00,NNE,28,17.0,22.0,100,0.00,,,0.01,75.000000,,2013-01-11 19:32:00,
2013-01-11 13:43:00,28.0,28.0,-100.00,NNE,28,17.0,22.0,100,0.00,,,0.01,75.000000,,2013-01-11 19:43:00,
2013-01-11 13:53:00,28.0,28.0,-100.00,NNE,28,17.0,22.0,100,0.00,,,0.01,75.000000,,2013-01-11 19:53:00,
2013-01-11 14:22:00,25.0,25.0,-100.00,NNE,15,14.0,21.0,100,0.00,,,0.01,119.000000,,2013-01-11 20:22:00,
2013-01-11 14:33:00,25.0,25.0,-100.00,NNE,15,14.0,21.0,100,0.00,,,0.01,119.000000,,2013-01-11 20:33:00,
2013-01-11 14:43:00,25.0,25.0,-100.00,NNE,15,14.0,21.0,100,0.00,,,0.01,119.000000,,2013-01-11 20:43:00,
2013-01-11 14:52:00,25.0,25.0,-100.00,NNE,15,14.0,21.0,100,0.00,,,0.01,119.000000,,2013-01-11 20:52:00,
2013-01-11 15:23:00,23.0,23.0,-100.00,NE,40,14.0,24.0,100,0.00,,,-99.99,81.000000,,2013-01-11 21:23:00,
2013-01-11 15:33:00,23.0,23.0,-100.00,NE,40,14.0,24.0,100,0.00,,,-99.99,81.000000,,2013-01-11 21:33:00,
2013-01-11 15:42:00,23.0,23.0,-100.00,NE,40,14.0,24.0,100,0.00,,,-99.99,81.000000,,2013-01-11 21:42:00,
2013-01-11 15:52:00,23.0,23.0,-100.00,NE,40,14.0,24.0,100,0.00,,,-99.99,81.000000,,2013-01-11 21:52:00,
2013-01-11 16:22:00,21.0,21.0,-100.00,North,3,18.0,25.0,100,0.00,,,0.01,43.000000,,2013-01-11 22:22:00,
2013-01-11 16:33:00,21.0,21.0,-100.00,North,3,18.0,25.0,100,0.00,,,0.01,43.000000,,2013-01-11 22:33:00,
2013-01-11 16:42:00,21.0,21.0,-100.00,North,3,18.0,25.0,100,0.00,,,0.01,43.000000,,2013-01-11 22:42:00,
2013-01-11 16:52:00,21.0,21.0,-100.00,North,3,18.0,25.0,100,0.00,,,0.01,43.000000,,2013-01-11 22:52:00,